Location: Lafig�re
(44.4503°N, 4.0357°E)
Time: 01:15:56
(UTC+00:00)

ARGOS - Pass Details

Date: 26 January 2021
Orbit: 821 x 834 km, 98.4° (Epoch: 03 March)

Event Time Altitude Azimuth Distance (km) Brightness Sun altitude
Rises 18:57:57 0° 172° (S) 3,340 6.3 -23.7°
Reaches altitude 10° 19:00:18 10° 175° (S) 2,413 5.5 -24.1°
Maximum altitude 19:05:37 68° 258° (WSW) 886 3.4 -25.0°
Drops below altitude 10° 19:11:00 10° 342° (NNW) 2,437 5.8 -26.0°
Sets 19:13:23 0° 345° (NNW) 3,377 6.5 -26.4°
